{"data":{"norad_id":64769,"intl_designator":"2025-147Q","name":"STARLINK-34246","alt_names":[],"object_type":"PAYLOAD","status":"ACTIVE","operator":null,"country":"US","launch_date":"2025-07-08","launch_site_code":"AFETR","launch_vehicle":null,"mission":null,"orbit_class":"UNKNOWN","rcs_meters":null,"size_class":null,"mass_kg":null,"dimensions":null,"purposes":["comms"],"wikipedia_slug":null,"has_3d_model":false,"image_url":null,"decayed_at":null,"tle_current":{"epoch":"2026-05-24T17:25:04.132992Z","epoch_age_seconds":98861,"freshness":"FRESH","line1":"1 64769U 25147Q   26144.72574228  .00012796  00000+0  38913-3 0  9996","line2":"2 64769  53.1601 248.8336 0001094  82.4052 277.7075 15.34406518 50400","mean_motion":15.34406518,"eccentricity":0.0001094,"inclination_deg":53.1601,"raan_deg":248.8336,"arg_perigee_deg":82.4052,"mean_anomaly_deg":277.7075,"bstar":0.00038913,"rev_number":5040,"period_min":93.847359425776,"perigee_km":461.93548160318,"apogee_km":463.43225320897,"semimajor_km":6840.8208674061,"source":"CELESTRAK","updated_at":"2026-05-25T13:38:20.556955Z"}}}